When you browse on this site, cookies collect data to enhance your experience and personalize the content and advertising you see.
Visit our Privacy Policy to learn more. By continuing to use the site, you agree to this use of cookies and data.

Hourly Weather Cachungo

Today, 12 July, Sunday

Time Temperature Precipitation Wind Pressure Humidity
00:00 +27°C° 0.6 mm 2 mps 756 mmHg 93%
01:00 +27°C° 0.6 mm 3 mps 755 mmHg 93%
02:00 +27°C° 0.6 mm 3 mps 755 mmHg 93%
03:00 +27°C° 1.6 mm 4 mps 755 mmHg 92%
04:00 +27°C° 1.6 mm 4 mps 755 mmHg 91%
05:00 +27°C° 0 mm 4 mps 755 mmHg 91%
06:00 +27°C° 2.2 mm 4 mps 756 mmHg 91%
07:00 +27°C° 2.2 mm 3 mps 756 mmHg 91%
08:00 +27°C° 2.2 mm 3 mps 756 mmHg 90%
09:00 +27°C° 4.9 mm 2 mps 756 mmHg 92%
10:00 +26°C° 4.9 mm 2 mps 757 mmHg 93%
11:00 +26°C° 4.9 mm 1 mps 757 mmHg 95%
12:00 +26°C° 11.3 mm 2 mps 757 mmHg 95%
13:00 +25°C° 11.3 mm 2 mps 756 mmHg 95%
14:00 +25°C° 11.3 mm 2 mps 756 mmHg 96%
15:00 +25°C° 1.5 mm 3 mps 756 mmHg 94%
16:00 +26°C° 1.5 mm 4 mps 756 mmHg 92%
17:00 +26°C° 1.5 mm 4 mps 756 mmHg 91%
18:00 +26°C° 0.1 mm 4 mps 757 mmHg 91%
19:00 +26°C° 0.1 mm 4 mps 757 mmHg 92%
20:00 +26°C° 0.1 mm 4 mps 758 mmHg 92%
21:00 +26°C° 0.8 mm 3 mps 758 mmHg 93%
22:00 +26°C° 0.8 mm 3 mps 758 mmHg 93%
23:00 +26°C° 0.8 mm 2 mps 759 mmHg 93%

Tomorrow, 13 July, Monday

Time Temperature Precipitation Wind Pressure Humidity
00:00 +26°C° 3.5 mm 2 mps 758 mmHg 95%
01:00 +25°C° 3.5 mm 2 mps 758 mmHg 96%
02:00 +25°C° 3.5 mm 2 mps 757 mmHg 97%
03:00 +25°C° 2.3 mm 2 mps 757 mmHg 97%
04:00 +25°C° 2.3 mm 1 mps 757 mmHg 97%
05:00 +25°C° 2.3 mm 1 mps 757 mmHg 97%
06:00 +26°C° 0.5 mm 1 mps 758 mmHg 95%
07:00 +26°C° 0.5 mm 1 mps 758 mmHg 93%
08:00 +27°C° 0.5 mm 1 mps 758 mmHg 91%
09:00 +27°C° 0.3 mm 1 mps 758 mmHg 88%
10:00 +28°C° 0.3 mm 1 mps 759 mmHg 85%
11:00 +28°C° 0.3 mm 1 mps 759 mmHg 82%
12:00 +28°C° 1.9 mm 2 mps 758 mmHg 84%
13:00 +27°C° 1.9 mm 3 mps 758 mmHg 87%
14:00 +27°C° 1.9 mm 3 mps 758 mmHg 90%
15:00 +27°C° 0.6 mm 3 mps 758 mmHg 89%
16:00 +27°C° 0.6 mm 3 mps 757 mmHg 88%
17:00 +27°C° 0.6 mm 3 mps 757 mmHg 87%
18:00 +27°C° 0 mm 3 mps 758 mmHg 88%
19:00 +26°C° 0 mm 3 mps 758 mmHg 90%
20:00 +26°C° 0 mm 2 mps 759 mmHg 92%
21:00 +26°C° 0 mm 2 mps 759 mmHg 93%
22:00 +26°C° 0 mm 2 mps 759 mmHg 93%
23:00 +26°C° 0 mm 2 mps 759 mmHg 93%

Day after tomorrow, 14 July, Tuesday

Time Temperature Precipitation Wind Pressure Humidity
00:00 +26°C° 0 mm 2 mps 758 mmHg 93%
01:00 +26°C° 0 mm 3 mps 758 mmHg 94%
02:00 +25°C° 0 mm 3 mps 758 mmHg 94%
03:00 +26°C° 0 mm 3 mps 757 mmHg 93%
04:00 +26°C° 0 mm 3 mps 757 mmHg 92%
05:00 +26°C° 0 mm 3 mps 757 mmHg 91%
06:00 +26°C° 0 mm 3 mps 757 mmHg 89%
07:00 +27°C° 0 mm 3 mps 758 mmHg 87%
08:00 +27°C° 0 mm 3 mps 758 mmHg 85%
09:00 +28°C° 0 mm 3 mps 758 mmHg 81%
10:00 +29°C° 0 mm 3 mps 758 mmHg 77%
11:00 +30°C° 0 mm 3 mps 758 mmHg 74%
12:00 +30°C° 0.6 mm 3 mps 757 mmHg 72%
13:00 +31°C° 0.6 mm 3 mps 757 mmHg 71%
14:00 +31°C° 0.6 mm 3 mps 756 mmHg 69%
15:00 +32°C° 0 mm 4 mps 756 mmHg 70%
16:00 +32°C° 0 mm 4 mps 755 mmHg 72%
17:00 +30°C° 0 mm 5 mps 755 mmHg 73%
18:00 +30°C° 0 mm 4 mps 755 mmHg 76%
19:00 +29°C° 0 mm 4 mps 756 mmHg 80%
20:00 +28°C° 0 mm 4 mps 756 mmHg 83%
21:00 +28°C° 0 mm 4 mps 756 mmHg 84%
22:00 +28°C° 0 mm 4 mps 757 mmHg 85%
23:00 +27°C° 0 mm 4 mps 757 mmHg 86%

15 July, Wednesday

Time Temperature Precipitation Wind Pressure Humidity
00:00 +27°C° 0 mm 4 mps 756 mmHg 87%
01:00 +27°C° 0 mm 4 mps 756 mmHg 88%
02:00 +27°C° 0 mm 3 mps 755 mmHg 89%
03:00 +26°C° 0 mm 3 mps 755 mmHg 89%
04:00 +26°C° 0 mm 3 mps 755 mmHg 89%
05:00 +26°C° 0 mm 3 mps 755 mmHg 89%
06:00 +27°C° 0 mm 3 mps 755 mmHg 87%
07:00 +27°C° 0 mm 3 mps 756 mmHg 84%
08:00 +28°C° 0 mm 4 mps 756 mmHg 81%
09:00 +29°C° 0 mm 4 mps 756 mmHg 77%
10:00 +29°C° 0 mm 4 mps 756 mmHg 73%
11:00 +30°C° 0 mm 4 mps 756 mmHg 69%
12:00 +32°C° 0 mm 4 mps 756 mmHg 65%
13:00 +33°C° 0 mm 4 mps 755 mmHg 60%
14:00 +34°C° 0 mm 4 mps 755 mmHg 55%
15:00 +33°C° 0 mm 4 mps 755 mmHg 61%
16:00 +32°C° 0 mm 4 mps 755 mmHg 67%
17:00 +29°C° 0 mm 4 mps 755 mmHg 73%
18:00 +29°C° 0 mm 4 mps 755 mmHg 77%
19:00 +28°C° 0 mm 3 mps 756 mmHg 80%
20:00 +27°C° 0 mm 3 mps 757 mmHg 84%
21:00 +27°C° 0 mm 3 mps 757 mmHg 83%
22:00 +27°C° 0 mm 2 mps 757 mmHg 83%
23:00 +27°C° 0 mm 2 mps 757 mmHg 83%

16 July, Thursday

Time Temperature Precipitation Wind Pressure Humidity
00:00 +27°C° 0.1 mm 2 mps 757 mmHg 84%
01:00 +27°C° 0.1 mm 2 mps 756 mmHg 85%
02:00 +26°C° 0.1 mm 2 mps 756 mmHg 86%
03:00 +26°C° 0.2 mm 2 mps 756 mmHg 87%
04:00 +26°C° 0.2 mm 2 mps 756 mmHg 87%
05:00 +26°C° 0.2 mm 1 mps 756 mmHg 87%
06:00 +27°C° 0.3 mm 2 mps 757 mmHg 87%
07:00 +27°C° 0.3 mm 2 mps 757 mmHg 87%
08:00 +27°C° 0.3 mm 2 mps 758 mmHg 87%
09:00 +28°C° 0.3 mm 2 mps 758 mmHg 82%
10:00 +29°C° 0.3 mm 3 mps 758 mmHg 77%
11:00 +30°C° 0.3 mm 3 mps 758 mmHg 73%
12:00 +30°C° 0.8 mm 3 mps 758 mmHg 72%
13:00 +30°C° 0.8 mm 4 mps 757 mmHg 71%
14:00 +32°C° 0.8 mm 4 mps 757 mmHg 70%
15:00 +30°C° 0.2 mm 4 mps 757 mmHg 72%
16:00 +30°C° 0.2 mm 4 mps 757 mmHg 74%
17:00 +29°C° 0.2 mm 4 mps 757 mmHg 76%
18:00 +28°C° 0.1 mm 4 mps 757 mmHg 79%
19:00 +28°C° 0.1 mm 3 mps 758 mmHg 82%
20:00 +27°C° 0.1 mm 3 mps 759 mmHg 86%
21:00 +27°C° 0.5 mm 3 mps 759 mmHg 87%
22:00 +27°C° 0.5 mm 3 mps 759 mmHg 88%
23:00 +26°C° 0.5 mm 3 mps 759 mmHg 89%

17 July, Friday

Time Temperature Precipitation Wind Pressure Humidity
00:00 +26°C° 1.6 mm 3 mps 758 mmHg 90%
01:00 +26°C° 1.6 mm 3 mps 758 mmHg 90%
02:00 +26°C° 1.6 mm 3 mps 757 mmHg 91%
03:00 +26°C° 2.2 mm 3 mps 757 mmHg 91%
04:00 +26°C° 2.2 mm 3 mps 757 mmHg 91%
05:00 +26°C° 2.2 mm 2 mps 757 mmHg 91%
06:00 +26°C° 3.1 mm 2 mps 758 mmHg 91%
07:00 +26°C° 3.1 mm 2 mps 758 mmHg 92%
08:00 +26°C° 3.1 mm 1 mps 758 mmHg 93%
09:00 +27°C° 2.3 mm 2 mps 758 mmHg 90%
10:00 +27°C° 2.3 mm 2 mps 758 mmHg 88%
11:00 +28°C° 2.3 mm 3 mps 758 mmHg 86%
12:00 +28°C° 2.3 mm 3 mps 758 mmHg 88%
13:00 +27°C° 2.3 mm 2 mps 758 mmHg 90%
14:00 +27°C° 2.3 mm 2 mps 757 mmHg 92%
15:00 +27°C° 2.4 mm 2 mps 757 mmHg 93%
16:00 +26°C° 2.4 mm 2 mps 757 mmHg 93%
17:00 +26°C° 2.4 mm 1 mps 757 mmHg 94%
18:00 +26°C° 1.6 mm 2 mps 757 mmHg 95%
19:00 +26°C° 1.6 mm 2 mps 758 mmHg 96%
20:00 +25°C° 1.6 mm 2 mps 758 mmHg 96%
21:00 +25°C° 0.1 mm 2 mps 758 mmHg 96%
22:00 +25°C° 0.1 mm 2 mps 758 mmHg 96%
23:00 +25°C° 0.1 mm 2 mps 758 mmHg 96%
Show more